FLOCK 3P-14

Last updated on Wed Feb 14 2018 16:20:32 GMT+0000 (Coordinated Universal Time)

1 42012U 17008BS 18044.79595501 .00001621 00000-0 69958-4 0 9994 2 42012 97.4666 110.4456 0009389 93.3902 266.8410 15.23949628 55113
UTC large
Height (km)
Speed (km/s)
/
Latitude / Longitude
Inclination (degrees)
Orbital Period (minutes)
Azimuth
Elevation
Range (km)
Doppler Factor

Next 0 passes for location: London (51.5072 / 0.1276)

Sorry there are no passes over London.